SIA634 WSSS-RJTT

Flight info

Callsign SIA634
Flight time N/A
Altitude 35000
Route TOMAN3A TOMAN/N0495F360 L625 AKMON/K0915F360 L625 ANOKI/N0494F360 L625 MEVIN/N0489F370 B462 KAZIK Y59 AZAMA/N0482F390 Y57 SUKBO Y571 BILLY Y21 AKSEL
Aircraft B77W/H-SDE1E2E3FGHIJ4J5M1P2RWXYZ/LB1D1

Departure

Time N/A
Airport Singapore Changi Airport (WSSS)

Arrival

Time 2026-05-06 23:15
Airport Tokyo Haneda International Airport (RJTT)
Time Latitude Longitude Altitude Speed Heading
2026-05-06 17:47 7.25524 109.53531 35826 ft 482 kts 36°
2026-05-06 17:48 7.30996 109.57415 35826 ft 481 kts 36°
2026-05-06 17:48 7.36460 109.61295 35824 ft 480 kts 36°
2026-05-06 17:49 7.41951 109.65194 35826 ft 481 kts 36°
2026-05-06 17:49 7.47397 109.69064 35828 ft 481 kts 36°
2026-05-06 17:50 7.52898 109.72973 35828 ft 481 kts 36°
2026-05-06 17:50 7.58358 109.76855 35828 ft 480 kts 36°
2026-05-06 17:51 7.63812 109.80733 35829 ft 481 kts 36°
2026-05-06 17:51 7.69290 109.84629 35828 ft 480 kts 36°
2026-05-06 17:52 7.74771 109.88530 35825 ft 479 kts 36°
2026-05-06 17:52 7.80225 109.92412 35827 ft 480 kts 36°
2026-05-06 17:53 7.85672 109.96291 35826 ft 479 kts 36°
2026-05-06 17:53 7.91137 110.00184 35828 ft 481 kts 36°
2026-05-06 17:54 7.96613 110.04084 35827 ft 480 kts 36°
2026-05-06 17:54 8.02063 110.07968 35828 ft 478 kts 36°
2026-05-06 17:55 8.07512 110.11853 35826 ft 479 kts 36°
2026-05-06 17:55 8.12954 110.15735 35827 ft 479 kts 36°
2026-05-06 17:56 8.18377 110.19604 35828 ft 480 kts 36°
2026-05-06 17:56 8.23843 110.23515 35828 ft 480 kts 36°
2026-05-06 17:57 8.29268 110.27423 35826 ft 480 kts 36°
2026-05-06 17:57 8.34731 110.31360 35826 ft 479 kts 36°
2026-05-06 17:58 8.40150 110.35265 35824 ft 480 kts 36°
2026-05-06 17:58 8.45602 110.39196 35819 ft 480 kts 36°
2026-05-06 17:59 8.51037 110.43115 35821 ft 481 kts 36°
2026-05-06 17:59 8.56494 110.47052 35823 ft 481 kts 36°
2026-05-06 18:00 8.61951 110.50990 35826 ft 480 kts 36°
2026-05-06 18:00 8.67380 110.54908 35836 ft 482 kts 36°
2026-05-06 18:01 8.72842 110.58852 35838 ft 480 kts 36°
2026-05-06 18:01 8.78274 110.62776 35830 ft 481 kts 36°
2026-05-06 18:02 8.83742 110.66729 35837 ft 481 kts 36°
2026-05-06 18:02 8.89202 110.70676 35831 ft 484 kts 36°
2026-05-06 18:03 8.94696 110.74648 35837 ft 483 kts 36°
2026-05-06 18:03 9.00179 110.78616 35844 ft 484 kts 36°
2026-05-06 18:04 9.05655 110.82579 35849 ft 484 kts 36°
2026-05-06 18:04 9.11137 110.86549 35847 ft 484 kts 36°
2026-05-06 18:05 9.16624 110.90522 35849 ft 484 kts 36°
2026-05-06 18:05 9.22105 110.94493 35849 ft 483 kts 36°
2026-05-06 18:06 9.27604 110.98480 35848 ft 484 kts 36°
2026-05-06 18:06 9.33062 111.02437 35847 ft 482 kts 36°
2026-05-06 18:07 9.38511 111.06390 35842 ft 482 kts 36°
2026-05-06 18:07 9.43991 111.10368 35836 ft 480 kts 36°
2026-05-06 18:08 9.49408 111.14300 35835 ft 480 kts 36°
2026-05-06 18:08 9.54856 111.18257 35838 ft 480 kts 36°
2026-05-06 18:09 9.60297 111.22210 35837 ft 480 kts 36°
2026-05-06 18:09 9.65718 111.26150 35838 ft 481 kts 36°
2026-05-06 18:10 9.71137 111.30091 35840 ft 479 kts 36°
2026-05-06 18:10 9.76571 111.34045 35843 ft 480 kts 36°
2026-05-06 18:11 9.82015 111.38007 35842 ft 481 kts 36°
2026-05-06 18:11 9.87439 111.41956 35845 ft 481 kts 36°
2026-05-06 18:12 9.92903 111.45934 35844 ft 481 kts 35°
2026-05-06 18:12 9.98343 111.49899 35846 ft 480 kts 35°
2026-05-06 18:13 10.03783 111.53867 35844 ft 481 kts 35°
2026-05-06 18:13 10.09233 111.57841 35843 ft 481 kts 35°
2026-05-06 18:14 10.14646 111.61790 35843 ft 482 kts 35°
2026-05-06 18:14 10.20109 111.65778 35833 ft 481 kts 36°
2026-05-06 18:15 10.25574 111.69769 35826 ft 483 kts 36°
2026-05-06 18:15 10.31003 111.73736 35829 ft 483 kts 35°
2026-05-06 18:16 10.36478 111.77737 35832 ft 482 kts 35°
2026-05-06 18:16 10.41933 111.81726 35833 ft 482 kts 35°
2026-05-06 18:17 10.47362 111.85696 35837 ft 482 kts 35°
2026-05-06 18:17 10.52833 111.89702 35840 ft 482 kts 35°
2026-05-06 18:18 10.58254 111.93670 35839 ft 483 kts 35°
2026-05-06 18:18 10.63724 111.97678 35839 ft 483 kts 35°
2026-05-06 18:19 10.69183 112.01678 35843 ft 483 kts 35°
2026-05-06 18:19 10.74661 112.05694 35842 ft 483 kts 35°
2026-05-06 18:20 10.80141 112.09714 35843 ft 483 kts 35°
2026-05-06 18:20 10.85557 112.13689 35846 ft 483 kts 35°
2026-05-06 18:21 10.91017 112.17697 35845 ft 482 kts 35°
2026-05-06 18:21 10.96472 112.21701 35846 ft 483 kts 35°
2026-05-06 18:22 11.01915 112.25679 35846 ft 482 kts 35°
2026-05-06 18:22 11.07410 112.29698 35847 ft 483 kts 35°
2026-05-06 18:23 11.12831 112.33664 35848 ft 482 kts 35°
2026-05-06 18:23 11.18286 112.37657 35849 ft 482 kts 35°
2026-05-06 18:24 11.23750 112.41660 35849 ft 482 kts 35°
2026-05-06 18:24 11.29215 112.45665 35849 ft 483 kts 34°
2026-05-06 18:25 11.34646 112.49646 35851 ft 482 kts 34°
2026-05-06 18:25 11.40091 112.53639 35852 ft 481 kts 34°
2026-05-06 18:26 11.45543 112.57641 35856 ft 482 kts 34°
2026-05-06 18:26 11.51020 112.61668 35856 ft 482 kts 34°
2026-05-06 18:27 11.56437 112.65659 35852 ft 481 kts 34°
2026-05-06 18:27 11.61888 112.69678 35854 ft 482 kts 35°
2026-05-06 18:28 11.67309 112.73676 35849 ft 481 kts 34°
2026-05-06 18:28 11.72747 112.77689 35843 ft 481 kts 34°
2026-05-06 18:29 11.78197 112.81712 35842 ft 481 kts 34°
2026-05-06 18:29 11.83605 112.85706 35843 ft 480 kts 34°
2026-05-06 18:30 11.89040 112.89721 35845 ft 482 kts 34°
2026-05-06 18:30 11.94463 112.93730 35847 ft 482 kts 34°
2026-05-06 18:31 11.99880 112.97736 35846 ft 481 kts 34°
2026-05-06 18:31 12.05320 113.01762 35844 ft 481 kts 34°
2026-05-06 18:32 12.10748 113.05782 35848 ft 481 kts 34°
2026-05-06 18:32 12.16199 113.09820 35847 ft 481 kts 34°
2026-05-06 18:33 12.21620 113.13837 35848 ft 481 kts 34°
2026-05-06 18:33 12.27061 113.17872 35848 ft 482 kts 34°
2026-05-06 18:34 12.32468 113.21884 35849 ft 482 kts 34°
2026-05-06 18:34 12.37923 113.25933 35848 ft 482 kts 34°
2026-05-06 18:35 12.43374 113.29972 35848 ft 483 kts 34°
2026-05-06 18:35 12.48807 113.34000 35848 ft 483 kts 34°
2026-05-06 18:36 12.54259 113.38045 35851 ft 483 kts 34°
2026-05-06 18:36 12.59708 113.42090 35854 ft 483 kts 34°
2026-05-06 18:37 12.65135 113.46120 35855 ft 483 kts 34°
2026-05-06 18:37 12.70609 113.50188 35856 ft 484 kts 34°
2026-05-06 18:38 12.76051 113.54236 35860 ft 484 kts 34°
2026-05-06 18:38 12.81509 113.58295 35863 ft 484 kts 34°
2026-05-06 18:39 12.86963 113.62354 35863 ft 483 kts 34°
2026-05-06 18:40 12.95120 113.68430 35864 ft 482 kts 34°
2026-05-06 18:40 13.00566 113.72489 35865 ft 484 kts 34°
2026-05-06 18:41 13.06034 113.76566 35865 ft 484 kts 34°
2026-05-06 18:41 13.11491 113.80638 35868 ft 485 kts 34°
2026-05-06 18:42 13.16927 113.84698 35870 ft 485 kts 34°
2026-05-06 18:42 13.22392 113.88780 35868 ft 484 kts 34°
2026-05-06 18:43 13.27855 113.92863 35866 ft 484 kts 34°
2026-05-06 18:43 13.33314 113.96945 35859 ft 484 kts 34°
2026-05-06 18:44 13.38767 114.01025 35856 ft 485 kts 34°
2026-05-06 18:44 13.44224 114.05111 35851 ft 484 kts 34°
2026-05-06 18:45 13.49663 114.09186 35848 ft 485 kts 34°
2026-05-06 18:45 13.55147 114.13296 35848 ft 484 kts 34°
2026-05-06 18:46 13.60578 114.17370 35848 ft 484 kts 34°
2026-05-06 18:46 13.66013 114.21449 35848 ft 485 kts 34°
2026-05-06 18:47 13.71488 114.25560 35848 ft 486 kts 34°
2026-05-06 18:47 13.76932 114.29650 35848 ft 485 kts 34°
2026-05-06 18:48 13.82390 114.33753 35848 ft 485 kts 34°
2026-05-06 18:48 13.87849 114.37860 35848 ft 486 kts 34°
2026-05-06 18:49 13.93326 114.41982 35848 ft 485 kts 34°
2026-05-06 18:49 13.98547 114.46349 35848 ft 488 kts 44°
2026-05-06 18:50 14.03270 114.51453 35848 ft 488 kts 45°
2026-05-06 18:50 14.07914 114.56515 35847 ft 489 kts 44°
2026-05-06 18:51 14.12581 114.61602 35854 ft 488 kts 44°
2026-05-06 18:51 14.17272 114.66720 35855 ft 489 kts 45°
2026-05-06 18:52 14.21931 114.71804 35864 ft 489 kts 45°
2026-05-06 18:52 14.26576 114.76876 35867 ft 488 kts 45°
2026-05-06 18:53 14.31273 114.82008 35866 ft 489 kts 45°
2026-05-06 18:53 14.35923 114.87093 35868 ft 488 kts 45°
2026-05-06 18:54 14.40594 114.92203 35868 ft 488 kts 45°
2026-05-06 18:54 14.45233 114.97282 35867 ft 488 kts 45°
2026-05-06 18:55 14.49890 115.02383 35867 ft 489 kts 45°
2026-05-06 18:55 14.54559 115.07501 35868 ft 489 kts 45°
2026-05-06 18:56 14.59240 115.12637 35866 ft 488 kts 45°
2026-05-06 18:56 14.63874 115.17723 35868 ft 488 kts 45°
2026-05-06 18:57 14.68552 115.22861 35868 ft 488 kts 45°
2026-05-06 18:57 14.73187 115.27956 35866 ft 489 kts 45°
2026-05-06 18:58 14.77866 115.33101 35868 ft 489 kts 45°
2026-05-06 18:58 14.82509 115.38211 35869 ft 489 kts 45°
2026-05-06 18:59 14.87156 115.43329 35868 ft 490 kts 45°
2026-05-06 18:59 14.91815 115.48463 35868 ft 489 kts 45°
2026-05-06 19:00 14.96479 115.53606 35866 ft 489 kts 45°
2026-05-06 19:00 15.01114 115.58722 35865 ft 488 kts 45°
2026-05-06 19:01 15.05755 115.63847 35860 ft 488 kts 45°
2026-05-06 19:01 15.10408 115.68990 35851 ft 489 kts 45°
2026-05-06 19:02 15.15071 115.74145 35848 ft 489 kts 45°
2026-05-06 19:02 15.19699 115.79267 35852 ft 489 kts 45°
2026-05-06 19:03 15.24364 115.84431 35851 ft 490 kts 45°
2026-05-06 19:03 15.29015 115.89587 35855 ft 489 kts 45°
2026-05-06 19:04 15.33652 115.94728 35859 ft 488 kts 45°
2026-05-06 19:04 15.38273 115.99857 35863 ft 489 kts 45°
2026-05-06 19:05 15.42915 116.05012 35867 ft 489 kts 45°
2026-05-06 19:05 15.47565 116.10179 35868 ft 490 kts 45°
2026-05-06 19:06 15.52226 116.15361 35869 ft 490 kts 45°
2026-05-06 19:06 15.56843 116.20500 35868 ft 489 kts 45°
2026-05-06 19:07 15.61496 116.25682 35868 ft 490 kts 45°
2026-05-06 19:07 15.66141 116.30857 35869 ft 489 kts 45°
2026-05-06 19:08 15.70783 116.36037 35869 ft 489 kts 45°
2026-05-06 19:08 15.75413 116.41202 35868 ft 489 kts 45°
2026-05-06 19:09 15.80058 116.46390 35869 ft 490 kts 45°
2026-05-06 19:09 15.84697 116.51574 35869 ft 490 kts 45°
2026-05-06 19:10 15.89323 116.56748 35869 ft 489 kts 45°
2026-05-06 19:10 15.93974 116.61952 35869 ft 490 kts 45°
2026-05-06 19:11 15.98616 116.67152 35865 ft 490 kts 45°
2026-05-06 19:11 16.03228 116.72324 35866 ft 490 kts 46°
2026-05-06 19:12 16.07854 116.77512 35865 ft 490 kts 46°
2026-05-06 19:12 16.12483 116.82708 35868 ft 489 kts 46°
2026-05-06 19:13 16.17125 116.87922 35868 ft 489 kts 46°
2026-05-06 19:13 16.21741 116.93111 35869 ft 490 kts 46°
2026-05-06 19:14 16.26352 116.98299 35868 ft 490 kts 46°
2026-05-06 19:14 16.31004 117.03535 35869 ft 491 kts 46°
2026-05-06 19:15 16.35637 117.08756 35869 ft 491 kts 46°
2026-05-06 19:15 16.40244 117.13951 35868 ft 490 kts 46°
2026-05-06 19:16 16.44856 117.19154 35868 ft 489 kts 46°
2026-05-06 19:16 16.49483 117.24380 35869 ft 490 kts 46°
2026-05-06 19:17 16.54108 117.29608 35868 ft 490 kts 46°
2026-05-06 19:17 16.58716 117.34820 35863 ft 490 kts 46°
2026-05-06 19:18 16.63327 117.40039 35860 ft 490 kts 46°
2026-05-06 19:18 16.67931 117.45255 35863 ft 489 kts 46°
2026-05-06 19:19 16.72545 117.50487 35866 ft 490 kts 46°
2026-05-06 19:19 16.77157 117.55719 35866 ft 489 kts 46°
2026-05-06 19:20 16.81778 117.60965 35868 ft 489 kts 46°
2026-05-06 19:20 16.86367 117.66180 35866 ft 489 kts 46°
2026-05-06 19:21 16.90971 117.71416 35863 ft 489 kts 46°
2026-05-06 19:21 16.95563 117.76645 35867 ft 490 kts 46°
2026-05-06 19:22 17.00168 117.81888 35865 ft 490 kts 46°
2026-05-06 19:22 17.04754 117.87115 35866 ft 490 kts 46°
2026-05-06 19:23 17.09367 117.92377 35865 ft 490 kts 46°
2026-05-06 19:23 17.13966 117.97627 35869 ft 490 kts 46°
2026-05-06 19:24 17.18564 118.02882 35869 ft 489 kts 46°
2026-05-06 19:24 17.23178 118.08157 35871 ft 489 kts 46°
2026-05-06 19:25 17.27756 118.13397 35868 ft 489 kts 46°
2026-05-06 19:25 17.32337 118.18642 35869 ft 490 kts 46°
2026-05-06 19:26 17.36953 118.23933 35868 ft 491 kts 46°
2026-05-06 19:26 17.41559 118.29217 35870 ft 491 kts 46°
2026-05-06 19:27 17.46153 118.34492 35869 ft 491 kts 46°
2026-05-06 19:27 17.50728 118.39748 35870 ft 490 kts 46°
2026-05-06 19:28 17.55327 118.45036 35870 ft 490 kts 46°
2026-05-06 19:28 17.59925 118.50327 35871 ft 491 kts 46°
2026-05-06 19:29 17.64538 118.55640 35870 ft 491 kts 46°
2026-05-06 19:29 17.69137 118.60943 35869 ft 491 kts 46°
2026-05-06 19:30 17.73709 118.66218 35868 ft 491 kts 46°
2026-05-06 19:30 17.78324 118.71547 35866 ft 490 kts 46°
2026-05-06 19:31 17.82912 118.76848 35866 ft 490 kts 46°
2026-05-06 19:31 17.89786 118.84801 35866 ft 490 kts 46°
2026-05-06 19:32 17.94350 118.90085 35869 ft 491 kts 46°
2026-05-06 19:32 17.98946 118.95412 35868 ft 491 kts 46°
2026-05-06 19:33 18.03546 119.00748 35860 ft 491 kts 46°
2026-05-06 19:33 18.08121 119.06059 35849 ft 491 kts 46°
2026-05-06 19:34 18.12689 119.11368 35852 ft 491 kts 46°
2026-05-06 19:34 18.17279 119.16705 35857 ft 491 kts 46°
2026-05-06 19:35 18.21832 119.22006 35856 ft 491 kts 46°
2026-05-06 19:35 18.26435 119.27367 35859 ft 491 kts 46°
2026-05-06 19:36 18.30989 119.32677 35864 ft 491 kts 46°
2026-05-06 19:36 18.35583 119.38038 35869 ft 491 kts 46°
2026-05-06 19:37 18.40184 119.43411 35867 ft 491 kts 46°
2026-05-06 19:37 18.44754 119.48754 35867 ft 491 kts 46°
2026-05-06 19:38 18.49318 119.54094 35865 ft 491 kts 46°
2026-05-06 19:38 18.53898 119.59457 35866 ft 491 kts 46°
2026-05-06 19:39 18.58458 119.64801 35865 ft 492 kts 46°
2026-05-06 19:39 18.63067 119.70207 35861 ft 492 kts 46°
2026-05-06 19:40 18.67640 119.75575 35862 ft 493 kts 46°
2026-05-06 19:40 18.72205 119.80940 35863 ft 493 kts 46°
2026-05-06 19:41 18.76789 119.86331 35864 ft 493 kts 46°
2026-05-06 19:41 18.81354 119.91705 35867 ft 493 kts 46°
2026-05-06 19:42 18.85926 119.97089 35868 ft 493 kts 46°
2026-05-06 19:42 18.90519 120.02505 35869 ft 494 kts 46°
2026-05-06 19:43 18.95108 120.07923 35868 ft 494 kts 46°
2026-05-06 19:43 18.99691 120.13338 35869 ft 494 kts 46°
2026-05-06 19:44 19.04276 120.18758 35869 ft 494 kts 46°
2026-05-06 19:44 19.08835 120.24152 35869 ft 495 kts 46°
2026-05-06 19:45 19.13427 120.29592 35872 ft 495 kts 46°
2026-05-06 19:45 19.18007 120.35022 35874 ft 495 kts 46°
2026-05-06 19:46 19.22573 120.40440 35875 ft 495 kts 46°
2026-05-06 19:46 19.27166 120.45896 35875 ft 495 kts 46°
2026-05-06 19:47 19.31748 120.51344 35880 ft 495 kts 46°
2026-05-06 19:47 19.36345 120.56813 35879 ft 495 kts 46°
2026-05-06 19:48 19.40903 120.62242 35882 ft 495 kts 46°
2026-05-06 19:48 19.45500 120.67722 35875 ft 496 kts 46°
2026-05-06 19:49 19.50073 120.73180 35875 ft 495 kts 46°
2026-05-06 19:49 19.54634 120.78626 35874 ft 496 kts 46°
2026-05-06 19:50 19.59235 120.84127 35877 ft 496 kts 46°
2026-05-06 19:50 19.63797 120.89586 35881 ft 497 kts 46°
2026-05-06 19:51 19.68401 120.95100 35880 ft 496 kts 46°
2026-05-06 19:51 19.72953 121.00558 35880 ft 496 kts 46°
2026-05-06 19:52 19.77542 121.06065 35884 ft 496 kts 46°
2026-05-06 19:52 19.82092 121.11530 35885 ft 496 kts 46°
2026-05-06 19:53 19.86672 121.17036 35886 ft 497 kts 46°
2026-05-06 19:53 19.91229 121.22519 35888 ft 497 kts 46°
2026-05-06 19:54 19.95803 121.28030 35888 ft 497 kts 46°
2026-05-06 19:54 20.00402 121.33574 35888 ft 496 kts 46°
2026-05-06 19:55 20.04962 121.39077 35891 ft 496 kts 46°
2026-05-06 19:55 20.09521 121.44585 35892 ft 496 kts 46°
2026-05-06 19:56 20.14069 121.50084 35893 ft 496 kts 46°
2026-05-06 19:56 20.18648 121.55625 35897 ft 496 kts 46°
2026-05-06 19:57 20.23185 121.61122 35901 ft 497 kts 46°
2026-05-06 19:57 20.27761 121.66672 35894 ft 496 kts 46°
2026-05-06 19:58 20.32317 121.72201 35898 ft 496 kts 46°
2026-05-06 19:58 20.36846 121.77705 35895 ft 496 kts 46°
2026-05-06 19:59 20.41396 121.83237 35903 ft 496 kts 46°
2026-05-06 19:59 20.45951 121.88783 35906 ft 496 kts 46°
2026-05-06 20:00 20.50482 121.94304 35909 ft 496 kts 46°
2026-05-06 20:00 20.55007 121.99823 35908 ft 496 kts 46°
2026-05-06 20:01 20.59558 122.05379 35908 ft 496 kts 46°
2026-05-06 20:01 20.64098 122.10928 35910 ft 496 kts 46°
2026-05-06 20:02 20.68622 122.16462 35912 ft 495 kts 46°
2026-05-06 20:02 20.73149 122.22006 35912 ft 495 kts 46°
2026-05-06 20:03 20.77690 122.27572 35913 ft 496 kts 46°
2026-05-06 20:03 20.82215 122.33124 35911 ft 497 kts 46°
2026-05-06 20:04 20.86743 122.38686 35914 ft 496 kts 46°
2026-05-06 20:04 20.91274 122.44256 35913 ft 495 kts 46°
2026-05-06 20:05 20.95799 122.49825 35914 ft 496 kts 46°
2026-05-06 20:05 21.00535 122.55170 35908 ft 491 kts 36°
2026-05-06 20:06 21.06178 122.59329 36510 ft 495 kts 29°
2026-05-06 20:06 21.09085 122.61341 36897 ft 495 kts 29°
2026-05-06 20:06 21.11962 122.63335 36916 ft 491 kts 29°
2026-05-06 20:07 21.17696 122.67315 36908 ft 487 kts 30°
2026-05-06 20:07 21.23374 122.71263 36908 ft 489 kts 30°
2026-05-06 20:08 21.29096 122.75249 36911 ft 489 kts 30°
2026-05-06 20:08 21.34775 122.79211 36909 ft 488 kts 30°
2026-05-06 20:09 21.40480 122.83193 36911 ft 488 kts 30°
2026-05-06 20:09 21.46154 122.87161 36910 ft 488 kts 30°
2026-05-06 20:10 21.51876 122.91164 36912 ft 489 kts 29°
2026-05-06 20:10 21.57537 122.95131 36911 ft 489 kts 29°
2026-05-06 20:11 21.63250 122.99136 36909 ft 488 kts 30°
2026-05-06 20:11 21.68928 123.03120 36909 ft 489 kts 30°
2026-05-06 20:12 21.74617 123.07117 36913 ft 488 kts 29°
2026-05-06 20:12 21.80300 123.11113 36914 ft 488 kts 29°
2026-05-06 20:13 21.85987 123.15115 36919 ft 487 kts 29°
2026-05-06 20:13 21.91645 123.19101 36927 ft 488 kts 30°
2026-05-06 20:14 21.97358 123.23131 36929 ft 488 kts 29°
2026-05-06 20:14 22.03021 123.27128 36930 ft 488 kts 29°
2026-05-06 20:15 22.08699 123.31140 36931 ft 488 kts 29°
2026-05-06 20:15 22.14373 123.35153 36935 ft 488 kts 29°
2026-05-06 20:16 22.20063 123.39181 36934 ft 487 kts 29°
2026-05-06 20:16 22.25737 123.43201 36935 ft 487 kts 29°
2026-05-06 20:17 22.31381 123.47205 36935 ft 488 kts 29°
2026-05-06 20:17 22.37069 123.51243 36935 ft 487 kts 29°
2026-05-06 20:18 22.42712 123.55254 36935 ft 488 kts 29°
2026-05-06 20:18 22.48379 123.59286 36936 ft 488 kts 29°
2026-05-06 20:19 22.54032 123.63312 36936 ft 487 kts 29°
2026-05-06 20:19 22.59721 123.67368 36928 ft 487 kts 30°
2026-05-06 20:20 22.65386 123.71410 36928 ft 488 kts 30°
2026-05-06 20:20 22.71058 123.75462 36929 ft 488 kts 30°
2026-05-06 20:21 22.76721 123.79511 36928 ft 488 kts 30°
2026-05-06 20:21 22.82371 123.83555 36928 ft 487 kts 30°
2026-05-06 20:22 22.88040 123.87616 36928 ft 487 kts 30°
2026-05-06 20:22 22.93669 123.91653 36928 ft 486 kts 30°
2026-05-06 20:23 22.99313 123.95705 36929 ft 487 kts 30°
2026-05-06 20:23 23.04942 123.99813 36932 ft 487 kts 30°
2026-05-06 20:24 23.10535 124.03944 36930 ft 487 kts 30°
2026-05-06 20:24 23.16158 124.08098 36936 ft 488 kts 30°
2026-05-06 20:25 23.21761 124.12241 36934 ft 487 kts 30°
2026-05-06 20:25 23.27356 124.16379 36933 ft 487 kts 30°
2026-05-06 20:26 23.32985 124.20553 36931 ft 488 kts 31°
2026-05-06 20:26 23.37967 124.25635 36939 ft 496 kts 45°
2026-05-06 20:27 23.42499 124.31263 36934 ft 496 kts 45°
2026-05-06 20:27 23.47043 124.36925 36933 ft 496 kts 45°
2026-05-06 20:28 23.51591 124.42593 36937 ft 496 kts 45°
2026-05-06 20:28 23.56139 124.48267 36937 ft 497 kts 45°
2026-05-06 20:29 23.60660 124.53915 36938 ft 495 kts 45°
2026-05-06 20:29 23.65207 124.59599 36935 ft 496 kts 45°
2026-05-06 20:30 23.71980 124.68079 36929 ft 496 kts 45°
2026-05-06 20:31 23.76524 124.73776 36931 ft 496 kts 45°
2026-05-06 20:31 23.81045 124.79449 36939 ft 497 kts 45°
2026-05-06 20:32 23.85587 124.85158 36943 ft 497 kts 45°
2026-05-06 20:32 23.90128 124.90870 36948 ft 497 kts 45°
2026-05-06 20:33 23.94646 124.96561 36950 ft 497 kts 45°
2026-05-06 20:33 23.99169 125.02265 36948 ft 496 kts 45°
2026-05-06 20:34 24.03683 125.07964 36956 ft 496 kts 45°
2026-05-06 20:34 24.08211 125.13686 36951 ft 497 kts 45°
2026-05-06 20:35 24.12732 125.19409 36963 ft 496 kts 45°
2026-05-06 20:35 24.17223 125.25098 36958 ft 497 kts 45°
2026-05-06 20:36 24.21748 125.30838 36968 ft 497 kts 45°
2026-05-06 20:36 24.26262 125.36571 36961 ft 495 kts 45°
2026-05-06 20:37 24.30733 125.42255 36964 ft 496 kts 45°
2026-05-06 20:37 24.35247 125.48003 36960 ft 496 kts 45°
2026-05-06 20:38 24.39732 125.53718 36963 ft 495 kts 45°
2026-05-06 20:38 24.44241 125.59471 36959 ft 496 kts 45°
2026-05-06 20:39 24.48712 125.65183 36968 ft 495 kts 45°
2026-05-06 20:39 24.53222 125.70951 36962 ft 496 kts 45°
2026-05-06 20:40 24.57696 125.76681 36957 ft 496 kts 45°
2026-05-06 20:40 24.62167 125.82413 36961 ft 495 kts 45°
2026-05-06 20:41 24.66663 125.88185 36964 ft 494 kts 45°
2026-05-06 20:41 24.71136 125.93934 36963 ft 496 kts 45°
2026-05-06 20:42 24.75580 125.99652 36967 ft 494 kts 46°
2026-05-06 20:42 24.80045 126.05405 36969 ft 495 kts 46°
2026-05-06 20:43 24.84538 126.11200 36965 ft 494 kts 45°
2026-05-06 20:43 24.88976 126.16931 36971 ft 495 kts 45°
2026-05-06 20:44 24.93444 126.22708 36968 ft 495 kts 45°
2026-05-06 20:44 24.97921 126.28504 36966 ft 497 kts 45°
2026-05-06 20:45 25.02387 126.34293 36961 ft 497 kts 45°
2026-05-06 20:45 25.06849 126.40084 36958 ft 496 kts 45°
2026-05-06 20:46 25.11325 126.45900 36960 ft 496 kts 45°
2026-05-06 20:46 25.15757 126.51667 36959 ft 495 kts 45°
2026-05-06 20:47 25.20242 126.57508 36961 ft 496 kts 45°
2026-05-06 20:47 25.24689 126.63308 36964 ft 496 kts 45°
2026-05-06 20:48 25.29137 126.69118 36960 ft 495 kts 46°
2026-05-06 20:48 25.33577 126.74922 36961 ft 496 kts 46°
2026-05-06 20:49 25.38007 126.80722 36969 ft 497 kts 46°
2026-05-06 20:49 25.42475 126.86579 36961 ft 495 kts 45°
2026-05-06 20:50 25.46911 126.92400 36964 ft 496 kts 45°
2026-05-06 20:50 25.51350 126.98234 36965 ft 495 kts 46°
2026-05-06 20:51 25.55772 127.04052 36959 ft 496 kts 46°
2026-05-06 20:51 25.60212 127.09900 36963 ft 496 kts 45°
2026-05-06 20:52 25.64777 127.15620 36965 ft 495 kts 44°
2026-05-06 20:52 25.69350 127.21310 36966 ft 494 kts 44°
2026-05-06 20:53 25.73895 127.26982 36971 ft 494 kts 44°
2026-05-06 20:53 25.78462 127.32694 36984 ft 493 kts 44°
2026-05-06 20:54 25.83015 127.38399 36988 ft 493 kts 44°
2026-05-06 20:54 25.87562 127.44106 36988 ft 493 kts 44°
2026-05-06 20:55 25.92069 127.49771 36992 ft 492 kts 44°
2026-05-06 20:55 25.96615 127.55492 36996 ft 492 kts 43°
2026-05-06 20:56 26.01132 127.61185 36996 ft 491 kts 44°
2026-05-06 20:56 26.05654 127.66889 36983 ft 493 kts 44°
2026-05-06 20:57 26.10176 127.72604 36984 ft 492 kts 44°
2026-05-06 20:57 26.14698 127.78324 36991 ft 493 kts 44°
2026-05-06 20:58 26.19649 127.83430 36992 ft 486 kts 35°
2026-05-06 20:58 26.24829 127.88251 36993 ft 485 kts 35°
2026-05-06 20:59 26.30005 127.93076 36995 ft 485 kts 34°
2026-05-06 20:59 26.35165 127.97896 36991 ft 485 kts 35°
2026-05-06 21:00 26.40333 128.02731 36988 ft 484 kts 35°
2026-05-06 21:00 26.45492 128.07564 36983 ft 484 kts 35°
2026-05-06 21:01 26.50642 128.12398 36981 ft 483 kts 34°
2026-05-06 21:01 26.55748 128.17194 36986 ft 483 kts 34°
2026-05-06 21:02 26.60914 128.22052 36988 ft 483 kts 34°
2026-05-06 21:02 26.66054 128.26891 36991 ft 483 kts 34°
2026-05-06 21:03 26.71186 128.31729 36995 ft 483 kts 34°
2026-05-06 21:03 26.76317 128.36574 37004 ft 483 kts 34°
2026-05-06 21:04 26.81455 128.41429 36995 ft 483 kts 34°
2026-05-06 21:04 26.86586 128.46284 36986 ft 482 kts 34°
2026-05-06 21:05 26.91704 128.51135 36992 ft 482 kts 34°
2026-05-06 21:05 26.96812 128.55981 36989 ft 482 kts 34°
2026-05-06 21:06 27.01892 128.60806 36988 ft 481 kts 34°
2026-05-06 21:06 27.06976 128.65642 36988 ft 480 kts 35°
2026-05-06 21:07 27.12068 128.70488 36986 ft 480 kts 34°
2026-05-06 21:07 27.17171 128.75354 36981 ft 480 kts 35°
2026-05-06 21:08 27.22241 128.80194 36975 ft 479 kts 34°
2026-05-06 21:08 27.27331 128.85060 36980 ft 478 kts 34°
2026-05-06 21:09 27.32362 128.89873 36978 ft 478 kts 34°
2026-05-06 21:09 27.37431 128.94731 36981 ft 477 kts 34°
2026-05-06 21:10 27.42498 128.99591 36984 ft 478 kts 34°
2026-05-06 21:10 27.47527 129.04422 36983 ft 476 kts 34°
2026-05-06 21:11 27.52558 129.09323 36974 ft 478 kts 38°
2026-05-06 21:11 27.56965 129.15010 36979 ft 485 kts 44°
2026-05-06 21:12 27.61269 129.20860 36988 ft 483 kts 44°
2026-05-06 21:12 27.65549 129.26686 36978 ft 482 kts 44°
2026-05-06 21:13 27.69820 129.32507 36982 ft 483 kts 45°
2026-05-06 21:13 27.74092 129.38339 36977 ft 480 kts 44°
2026-05-06 21:14 27.78334 129.44136 36982 ft 480 kts 45°
2026-05-06 21:14 27.82584 129.49953 36979 ft 480 kts 45°
2026-05-06 21:15 27.86854 129.55803 36992 ft 481 kts 45°
2026-05-06 21:15 27.91075 129.61595 36987 ft 480 kts 45°
2026-05-06 21:16 27.95324 129.67435 36983 ft 480 kts 45°
2026-05-06 21:16 27.99570 129.73277 36984 ft 478 kts 45°
2026-05-06 21:17 28.03803 129.79109 36983 ft 480 kts 45°
2026-05-06 21:17 28.08021 129.84927 36981 ft 480 kts 45°
2026-05-06 21:18 28.12244 129.90762 36995 ft 477 kts 45°
2026-05-06 21:18 28.16439 129.96567 36992 ft 478 kts 45°
2026-05-06 21:19 28.20639 130.02387 36997 ft 477 kts 45°
2026-05-06 21:19 28.24826 130.08195 36989 ft 476 kts 45°
2026-05-06 21:20 28.29049 130.14061 36996 ft 478 kts 45°
2026-05-06 21:20 28.33229 130.19876 36999 ft 477 kts 45°
2026-05-06 21:21 28.37432 130.25732 36992 ft 477 kts 45°
2026-05-06 21:21 28.41624 130.31581 36999 ft 478 kts 45°
2026-05-06 21:22 28.45797 130.37408 36987 ft 477 kts 45°
2026-05-06 21:22 28.49983 130.43263 36996 ft 478 kts 45°
2026-05-06 21:23 28.54188 130.49155 36996 ft 480 kts 45°
2026-05-06 21:23 28.58358 130.55005 36993 ft 479 kts 45°
2026-05-06 21:24 28.62554 130.60901 36993 ft 477 kts 45°
2026-05-06 21:24 28.66743 130.66792 36987 ft 480 kts 46°
2026-05-06 21:25 28.70904 130.72653 36987 ft 478 kts 46°
2026-05-06 21:25 28.75088 130.78555 36983 ft 479 kts 46°
2026-05-06 21:26 28.79236 130.84418 36986 ft 477 kts 46°
2026-05-06 21:26 28.83405 130.90317 36971 ft 476 kts 46°
2026-05-06 21:27 28.87571 130.96217 36964 ft 477 kts 46°
2026-05-06 21:27 28.91717 131.02100 36965 ft 477 kts 46°
2026-05-06 21:28 28.95896 131.08035 36966 ft 480 kts 46°
2026-05-06 21:28 29.00061 131.13962 36969 ft 479 kts 46°
2026-05-06 21:29 29.04223 131.19891 36965 ft 480 kts 47°
2026-05-06 21:29 29.08387 131.25832 36963 ft 481 kts 47°
2026-05-06 21:30 29.12574 131.31816 36975 ft 482 kts 47°
2026-05-06 21:30 29.16750 131.37791 36981 ft 483 kts 47°
2026-05-06 21:31 29.20947 131.43806 36975 ft 483 kts 47°
2026-05-06 21:31 29.25124 131.49800 36972 ft 483 kts 47°
2026-05-06 21:32 29.29294 131.55795 36972 ft 484 kts 47°
2026-05-06 21:32 29.35574 131.64835 36970 ft 483 kts 48°
2026-05-06 21:33 29.39782 131.70905 36976 ft 485 kts 49°
2026-05-06 21:33 29.43958 131.76939 36971 ft 483 kts 48°
2026-05-06 21:34 29.48140 131.82989 36966 ft 485 kts 49°
2026-05-06 21:34 29.52316 131.89041 36969 ft 486 kts 49°
2026-05-06 21:35 29.56516 131.95136 36979 ft 485 kts 49°
2026-05-06 21:35 29.60682 132.01189 36970 ft 485 kts 49°
2026-05-06 21:36 29.64857 132.07266 36976 ft 486 kts 49°
2026-05-06 21:36 29.69140 132.13335 37389 ft 492 kts 48°
2026-05-06 21:37 29.71308 132.16362 37946 ft 490 kts 48°
2026-05-06 21:37 29.73474 132.19394 38391 ft 489 kts 48°
2026-05-06 21:37 29.75621 132.22400 38676 ft 491 kts 48°
2026-05-06 21:37 29.77795 132.25449 38944 ft 493 kts 48°
2026-05-06 21:38 29.82144 132.31560 38978 ft 493 kts 49°
2026-05-06 21:38 29.86486 132.37671 38986 ft 495 kts 49°
2026-05-06 21:39 29.90838 132.43808 38979 ft 495 kts 49°
2026-05-06 21:39 29.95182 132.49944 38980 ft 497 kts 49°
2026-05-06 21:40 29.99546 132.56119 38988 ft 497 kts 49°
2026-05-06 21:40 30.03915 132.62309 38986 ft 498 kts 49°
2026-05-06 21:41 30.08260 132.68475 38981 ft 499 kts 50°
2026-05-06 21:41 30.12631 132.74689 38987 ft 499 kts 50°
2026-05-06 21:42 30.16990 132.80894 38986 ft 499 kts 50°
2026-05-06 21:42 30.21371 132.87141 38994 ft 501 kts 50°
2026-05-06 21:43 30.25722 132.93358 38985 ft 498 kts 51°
2026-05-06 21:43 30.30095 132.99612 38982 ft 500 kts 51°
2026-05-06 21:44 30.34462 133.05867 38996 ft 500 kts 51°
2026-05-06 21:44 30.38834 133.12141 39002 ft 502 kts 51°
2026-05-06 21:45 30.43185 133.18394 38993 ft 501 kts 51°
2026-05-06 21:45 30.47549 133.24677 38997 ft 502 kts 51°
2026-05-06 21:46 30.51927 133.30986 39018 ft 507 kts 51°
2026-05-06 21:46 30.56330 133.37346 39003 ft 505 kts 51°
2026-05-06 21:47 30.60740 133.43723 39004 ft 506 kts 51°
2026-05-06 21:47 30.65129 133.50081 39020 ft 507 kts 51°
2026-05-06 21:48 30.69516 133.56447 39014 ft 508 kts 51°
2026-05-06 21:48 30.73915 133.62840 39019 ft 510 kts 51°
2026-05-06 21:49 30.78366 133.69319 39015 ft 512 kts 52°
2026-05-06 21:49 30.82771 133.75742 39008 ft 510 kts 52°
2026-05-06 21:50 30.87188 133.82188 39022 ft 512 kts 52°
2026-05-06 21:50 30.91624 133.88675 39005 ft 511 kts 53°
2026-05-06 21:51 30.96019 133.95110 39026 ft 511 kts 53°
2026-05-06 21:51 31.00451 134.01611 39007 ft 512 kts 53°
2026-05-06 21:52 31.04878 134.08116 39016 ft 512 kts 53°
2026-05-06 21:52 31.09272 134.14583 39020 ft 513 kts 53°
2026-05-06 21:53 31.13716 134.21135 39013 ft 514 kts 53°
2026-05-06 21:53 31.18147 134.27678 39010 ft 515 kts 53°
2026-05-06 21:54 31.22609 134.34279 39012 ft 519 kts 53°
2026-05-06 21:54 31.27054 134.40865 39010 ft 518 kts 53°
2026-05-06 21:55 31.31536 134.47517 39016 ft 522 kts 53°
2026-05-06 21:55 31.35994 134.54146 39017 ft 520 kts 53°
2026-05-06 21:56 31.40451 134.60785 39015 ft 521 kts 53°
2026-05-06 21:56 31.44955 134.67505 39009 ft 523 kts 53°
2026-05-06 21:57 31.49408 134.74159 39011 ft 522 kts 53°
2026-05-06 21:57 31.53887 134.80864 39012 ft 525 kts 53°
2026-05-06 21:58 31.58368 134.87585 39012 ft 525 kts 53°
2026-05-06 21:58 31.62862 134.94336 39012 ft 525 kts 53°
2026-05-06 21:59 31.67357 135.01100 39019 ft 528 kts 53°
2026-05-06 21:59 31.71867 135.07899 39021 ft 528 kts 53°
2026-05-06 22:00 31.76714 135.14371 39022 ft 531 kts 48°
2026-05-06 22:00 31.81682 135.20752 39021 ft 530 kts 48°
2026-05-06 22:01 31.86651 135.27185 39020 ft 530 kts 48°
2026-05-06 22:01 31.91566 135.33581 39024 ft 531 kts 48°
2026-05-06 22:02 31.96534 135.40070 39022 ft 531 kts 48°
2026-05-06 22:02 32.01447 135.46504 39022 ft 531 kts 48°
2026-05-06 22:03 32.06371 135.52971 39027 ft 531 kts 48°
2026-05-06 22:03 32.11299 135.59454 39020 ft 533 kts 48°
2026-05-06 22:04 32.16238 135.65965 39009 ft 532 kts 49°
2026-05-06 22:04 32.21180 135.72492 39009 ft 534 kts 48°
2026-05-06 22:05 32.26096 135.78996 39009 ft 534 kts 49°
2026-05-06 22:05 32.31031 135.85538 39011 ft 534 kts 49°
2026-05-06 22:06 32.35945 135.92064 39014 ft 532 kts 48°
2026-05-06 22:06 32.40861 135.98602 39016 ft 534 kts 48°
2026-05-06 22:07 32.45798 136.05177 39013 ft 536 kts 48°
2026-05-06 22:07 32.50725 136.11745 39014 ft 533 kts 48°
2026-05-06 22:08 32.55651 136.18324 39026 ft 533 kts 47°
2026-05-06 22:08 32.60555 136.24884 39030 ft 534 kts 48°
2026-05-06 22:09 32.65464 136.31464 39030 ft 531 kts 47°
2026-05-06 22:09 32.70348 136.38022 39026 ft 533 kts 47°
2026-05-06 22:10 32.75252 136.44618 39032 ft 534 kts 47°
2026-05-06 22:10 32.80130 136.51192 39033 ft 533 kts 47°
2026-05-06 22:11 32.85054 136.57838 39027 ft 533 kts 47°
2026-05-06 22:11 32.89932 136.64435 39033 ft 536 kts 47°
2026-05-06 22:12 32.94835 136.71072 39026 ft 534 kts 47°
2026-05-06 22:12 32.99726 136.77702 39018 ft 535 kts 47°
2026-05-06 22:13 33.04631 136.84363 39021 ft 534 kts 47°
2026-05-06 22:13 33.09524 136.91019 39021 ft 534 kts 47°
2026-05-06 22:14 33.14385 136.97644 39013 ft 534 kts 47°
2026-05-06 22:14 33.19311 137.04369 39011 ft 536 kts 47°
2026-05-06 22:15 33.24181 137.11032 39015 ft 534 kts 47°
2026-05-06 22:15 33.29023 137.17671 39014 ft 533 kts 47°
2026-05-06 22:16 33.33918 137.24394 39011 ft 534 kts 47°
2026-05-06 22:16 33.38752 137.31047 39013 ft 534 kts 47°
2026-05-06 22:17 33.43597 137.37729 39010 ft 531 kts 46°
2026-05-06 22:17 33.48447 137.44428 39014 ft 533 kts 46°
2026-05-06 22:18 33.53287 137.51125 39015 ft 533 kts 46°
2026-05-06 22:18 33.58110 137.57812 39019 ft 532 kts 47°
2026-05-06 22:19 33.62458 137.64963 39015 ft 535 kts 58°
2026-05-06 22:19 33.66054 137.72734 39003 ft 535 kts 60°
2026-05-06 22:20 33.69650 137.80594 39005 ft 538 kts 60°
2026-05-06 22:20 33.73238 137.88454 39005 ft 537 kts 60°
2026-05-06 22:21 33.76805 137.96280 39010 ft 535 kts 60°
2026-05-06 22:21 33.80367 138.04114 39022 ft 536 kts 59°
2026-05-06 22:22 33.83952 138.12015 39029 ft 542 kts 59°
2026-05-06 22:22 33.87519 138.19891 39018 ft 542 kts 59°
2026-05-06 22:23 33.91110 138.27843 39016 ft 540 kts 59°
2026-05-06 22:23 33.94669 138.35809 39017 ft 540 kts 59°
2026-05-06 22:24 33.97590 138.42378 39022 ft 543 kts 59°
2026-05-06 22:52 33.99095 138.45769 39021 ft 542 kts 59°
2026-05-06 22:52 34.02631 138.53742 39022 ft 542 kts 59°
2026-05-06 22:53 34.06169 138.61737 38697 ft 534 kts 59°
2026-05-06 22:53 34.07906 138.65668 37676 ft 537 kts 60°
2026-05-06 22:53 34.09653 138.69626 36769 ft 538 kts 60°
2026-05-06 22:53 34.11404 138.73596 36005 ft 536 kts 60°
2026-05-06 22:54 34.13153 138.77570 35241 ft 534 kts 61°
2026-05-06 22:54 34.14883 138.81502 34422 ft 532 kts 60°
2026-05-06 22:54 34.16595 138.85400 33590 ft 531 kts 61°
2026-05-06 22:54 34.18328 138.89349 32764 ft 531 kts 61°
2026-05-06 22:55 34.20042 138.93259 31899 ft 531 kts 61°
2026-05-06 22:55 34.21753 138.97166 31171 ft 530 kts 61°
2026-05-06 22:55 34.23481 139.01117 31018 ft 540 kts 61°
2026-05-06 22:56 34.27032 139.09247 30951 ft 539 kts 61°
2026-05-06 22:56 34.28675 139.13190 30518 ft 530 kts 65°
2026-05-06 22:56 34.30135 139.17297 29642 ft 530 kts 67°
2026-05-06 22:56 34.31531 139.21347 28766 ft 530 kts 67°
2026-05-06 22:57 34.32952 139.25482 28159 ft 524 kts 67°
2026-05-06 22:57 34.34319 139.29459 27714 ft 515 kts 67°
2026-05-06 22:57 34.35695 139.33466 27235 ft 507 kts 67°
2026-05-06 22:57 34.37025 139.37338 26576 ft 504 kts 67°
2026-05-06 22:58 34.38360 139.41232 25842 ft 503 kts 67°
2026-05-06 22:58 34.39692 139.45119 25267 ft 497 kts 67°
2026-05-06 22:58 34.41005 139.48953 24783 ft 489 kts 67°
2026-05-06 22:58 34.42298 139.52733 24263 ft 483 kts 68°
2026-05-06 22:59 34.43567 139.56450 23599 ft 481 kts 67°
2026-05-06 22:59 34.44839 139.60176 22979 ft 477 kts 68°
2026-05-06 22:59 34.46096 139.63860 22467 ft 471 kts 68°
2026-05-06 22:59 34.47497 139.67363 21943 ft 465 kts 59°
2026-05-06 23:00 34.49338 139.70566 21337 ft 461 kts 50°
2026-05-06 23:00 34.51534 139.73303 20712 ft 456 kts 39°
2026-05-06 23:00 34.54066 139.75580 20112 ft 451 kts 31°
2026-05-06 23:00 34.56731 139.77586 19567 ft 445 kts 30°
2026-05-06 23:01 34.59347 139.79524 19028 ft 441 kts 29°
2026-05-06 23:01 34.61966 139.81459 18404 ft 439 kts 29°
2026-05-06 23:01 34.64525 139.83348 17786 ft 436 kts 30°
2026-05-06 23:01 34.67113 139.85259 17181 ft 433 kts 30°
2026-05-06 23:02 34.69685 139.87149 16660 ft 428 kts 29°
2026-05-06 23:02 34.72218 139.89018 16146 ft 424 kts 30°
2026-05-06 23:02 34.74722 139.90865 15579 ft 421 kts 30°
2026-05-06 23:02 34.77207 139.92694 14986 ft 418 kts 30°
2026-05-06 23:03 34.79687 139.94504 14442 ft 414 kts 30°
2026-05-06 23:03 34.82132 139.96274 13857 ft 406 kts 29°
2026-05-06 23:03 34.84507 139.97990 12936 ft 398 kts 29°
2026-05-06 23:03 34.86889 139.99721 11869 ft 398 kts 29°
2026-05-06 23:04 34.89235 140.01427 11113 ft 393 kts 29°
2026-05-06 23:04 34.91563 140.03131 10478 ft 387 kts 29°
2026-05-06 23:04 34.93863 140.04823 10052 ft 379 kts 29°
2026-05-06 23:04 34.96061 140.06445 9971 ft 363 kts 29°
2026-05-06 23:05 34.98226 140.07896 9892 ft 344 kts 18°
2026-05-06 23:05 35.00496 140.08411 9794 ft 322 kts 354°
2026-05-06 23:05 35.02575 140.07875 9725 ft 299 kts 335°
2026-05-06 23:05 35.04452 140.06950 9673 ft 284 kts 332°
2026-05-06 23:06 35.06248 140.06035 9402 ft 278 kts 332°
2026-05-06 23:06 35.08036 140.05112 8982 ft 278 kts 332°
2026-05-06 23:06 35.09805 140.04187 8583 ft 277 kts 332°
2026-05-06 23:06 35.11562 140.03278 8221 ft 274 kts 332°
2026-05-06 23:07 35.13316 140.02361 7765 ft 272 kts 332°
2026-05-06 23:07 35.15033 140.01456 7326 ft 270 kts 332°
2026-05-06 23:07 35.16752 140.00540 6886 ft 269 kts 332°
2026-05-06 23:07 35.18555 139.99852 6421 ft 272 kts 346°
2026-05-06 23:08 35.20355 139.99463 6365 ft 259 kts 346°
2026-05-06 23:08 35.22120 139.99094 6311 ft 248 kts 346°
2026-05-06 23:08 35.23777 139.98738 6216 ft 239 kts 346°
2026-05-06 23:08 35.25400 139.98351 5940 ft 235 kts 337°
2026-05-06 23:09 35.26854 139.97516 5636 ft 230 kts 327°
2026-05-06 23:09 35.28238 139.96547 5344 ft 230 kts 326°
2026-05-06 23:09 35.29611 139.95583 5092 ft 227 kts 326°
2026-05-06 23:09 35.30958 139.94629 4986 ft 218 kts 325°
2026-05-06 23:10 35.32242 139.93660 4773 ft 214 kts 324°
2026-05-06 23:10 35.33519 139.92706 4503 ft 214 kts 326°
2026-05-06 23:10 35.34804 139.91788 4230 ft 214 kts 327°
2026-05-06 23:10 35.36089 139.90898 3963 ft 210 kts 327°
2026-05-06 23:11 35.37357 139.90024 3694 ft 206 kts 327°
2026-05-06 23:11 35.38589 139.89171 3430 ft 202 kts 327°
2026-05-06 23:11 35.39786 139.88329 3173 ft 198 kts 327°
2026-05-06 23:11 35.40989 139.87491 2911 ft 195 kts 327°
2026-05-06 23:12 35.42147 139.86675 2657 ft 193 kts 327°
2026-05-06 23:12 35.43314 139.85847 2399 ft 190 kts 328°
2026-05-06 23:12 35.44427 139.85075 2149 ft 180 kts 327°
2026-05-06 23:12 35.45480 139.84331 1900 ft 167 kts 328°
2026-05-06 23:13 35.46455 139.83643 1692 ft 157 kts 328°
2026-05-06 23:13 35.47381 139.82996 1492 ft 151 kts 328°
2026-05-06 23:13 35.48290 139.82347 1285 ft 149 kts 329°
2026-05-06 23:13 35.49178 139.81725 1081 ft 146 kts 329°
2026-05-06 23:14 35.50054 139.81107 881 ft 144 kts 330°
2026-05-06 23:14 35.50926 139.80495 679 ft 143 kts 329°
2026-05-06 23:14 35.51788 139.79877 489 ft 142 kts 331°
2026-05-06 23:14 35.52656 139.79277 285 ft 142 kts 330°
2026-05-06 23:15 35.53503 139.78673 97 ft 142 kts 329°
2026-05-06 23:15 35.54328 139.78087 22 ft 124 kts 329°
2026-05-06 23:15 35.54919 139.77672 33 ft 65 kts 330°
2026-05-06 23:15 35.55187 139.77469 35 ft 35 kts 320°
2026-05-06 23:16 35.55271 139.77333 34 ft 10 kts 303°
2026-05-06 23:16 35.55308 139.77257 34 ft 10 kts 285°
2026-05-06 23:16 35.55276 139.77193 34 ft 10 kts 195°
2026-05-06 23:16 35.55203 139.77217 33 ft 11 kts 151°
2026-05-06 23:17 35.55129 139.77267 32 ft 12 kts 150°
2026-05-06 23:17 35.55054 139.77319 32 ft 12 kts 149°
2026-05-06 23:17 35.54973 139.77379 32 ft 14 kts 149°
2026-05-06 23:17 35.54881 139.77444 31 ft 16 kts 150°
2026-05-06 23:18 35.54781 139.77516 30 ft 16 kts 150°
2026-05-06 23:18 35.54677 139.77589 28 ft 17 kts 150°
2026-05-06 23:18 35.54591 139.77650 27 ft 9 kts 150°
2026-05-06 23:18 35.54528 139.77684 25 ft 10 kts 176°
2026-05-06 23:19 35.54478 139.77638 25 ft 9 kts 238°
2026-05-06 23:19 35.54442 139.77563 25 ft 10 kts 240°
2026-05-06 23:19 35.54406 139.77487 25 ft 10 kts 240°
2026-05-06 23:19 35.54369 139.77408 25 ft 10 kts 240°
2026-05-06 23:20 35.54359 139.77328 25 ft 9 kts 294°
2026-05-06 23:20 35.54388 139.77296 25 ft 3 kts 329°
2026-05-06 23:20 35.54414 139.77277 26 ft 6 kts 329°
2026-05-06 23:20 35.54449 139.77246 26 ft 4 kts 305°
2026-05-06 23:21 35.54451 139.77208 27 ft 4 kts 250°
2026-05-06 23:21 35.54433 139.77177 27 ft 5 kts 237°
2026-05-06 23:21 35.54418 139.77147 27 ft 2 kts 240°
2026-05-06 23:21 35.54416 139.77141 27 ft 0 kts 240°